Flag for China Weather past 2 weeks in Lanzhou, Gansu, China

Now
57 °F

Passing clouds.


Feels Like: 57 °F
Forecast: 52 / 74 °F
Wind: 3 mph from West

Location: Lanzhou / Zhongchuan

Current Time: Sep 4, 2015 at 2:14:14 AM

Latest Report: Sep 4, 2015 at 1:00 AM


Visibility: N/A

Pressure: 30.12 "Hg (25.07 "Hg at 1543m altitude)

Humidity: 88%

Dew point: 54 °F

Location of LanzhouLocation

Historic Weather in Lanzhou — Graph

°F

Lanzhou temperature yesterday

Maximum temperature yesterday: 64 °F (at 11:00 AM)
Minimum temperature yesterday: 57 °F (at 4:00 PM)
Average temperature yesterday: 61 °F

Past Weeks' High & Low Weather Summary

 TemperatureHumidityPressure
High82 °F (Aug 30, 2:00 PM)94% (Sep 3, 4:00 PM)30.30 "Hg (Sep 3, 4:00 PM)
Low45 °F (Aug 21, 5:00 AM)17% (Aug 24, 5:00 PM)29.92 "Hg (Aug 23, 5:00 PM)
Average65 °F50%30.07 "Hg
* Reported Aug 20 1:00 AM — Sep 4 1:00 AM, Lanzhou, Weather by CustomWeather, © 2015

Note: Actual official high and low records may vary slightly from our data, if they occured in-between our weather recording intervals... More about our weather records

Advertising

Lanzhou weather history for previous 24 hours

 ConditionsComfort  
Time TempWeatherWind HumidityBarometerVisibility
1:00 AM
Fri, Sep 4
57 °FPassing clouds.3 mph88%30.12 "HgN/A
12:00 AM57 °FPassing clouds.3 mph88%30.12 "HgN/A
11:00 PM
Thu, Sep 3
57 °FPassing clouds.3 mph88%30.09 "HgN/A
10:00 PM57 °FPassing clouds.3 mph88%30.09 "HgN/A
9:00 PM59 °FPassing clouds.1 mph82%30.07 "HgN/A
8:00 PM59 °FPartly sunny.1 mph82%30.04 "HgN/A
7:00 PM59 °FOvercast.1 mph82%30.04 "HgN/A
6:00 PM59 °FOvercast.3 mph88%30.04 "HgN/A
5:00 PM59 °FLight rain. Overcast.6 mph88%30.01 "HgN/A
4:00 PM57 °FLight rain. Overcast.8 mph94%30.01 "Hg4 mi
3:00 PM63 °FLight rain. Overcast.1 mph83%30.01 "Hg4 mi
2:00 PM63 °FLight rain. Overcast.1 mph83%30.01 "HgN/A
1:00 PM63 °FLight rain. Overcast.1 mph83%29.98 "HgN/A
12:00 PM63 °FLight rain. Overcast.1 mph77%30.01 "HgN/A
11:00 AM64 °FLight rain. Overcast.3 mph73%30.01 "HgN/A
10:00 AM63 °FOvercast.6 mph77%30.01 "HgN/A
9:00 AM63 °FOvercast.3 mph77%30.01 "HgN/A
8:00 AM61 °FOvercast.3 mph83%29.98 "HgN/A
7:00 AM61 °FOvercast.1 mph83%29.98 "HgN/A
6:00 AM61 °FMostly cloudy.1 mph83%29.98 "HgN/A
5:00 AM61 °FOvercast.1 mph83%29.98 "HgN/A
4:00 AM61 °FOvercast.3 mph83%29.98 "HgN/A
3:00 AM61 °FOvercast.3 mph83%30.01 "HgN/A
2:00 AM61 °FOvercast.3 mph83%30.01 "Hg5 mi
Weather by CustomWeather, © 2015

See weather overviewHow to use our weather pages